GW7021 Weather Reports


time (UTC)temp
C
wind
direction
speed
KPH
gust
KPH
rain 1hr
cm
rain 24hr
cm
rain mn
cm
humidity
%
barometer
mb
20260508043504 13 126 1.6 3.2 0.00 0.00 0.00 85 1018.3
20260508043004 13 125 3.2 3.2 0.00 0.00 0.00 85 1017.9
20260508042504 13 127 3.2 3.2 0.00 0.00 0.00 85 1018.0
20260508042004 13 143 3.2 3.2 0.00 0.00 0.00 85 1017.8
20260508041004 13 135 1.6 3.2 0.00 0.00 0.00 85 1017.9
20260508040004 13 1 0.0 1.6 0.00 0.00 0.00 86 1017.8
20260508035504 12 1 0.0 1.6 0.00 0.00 0.00 86 1017.4
20260508034504 13 157 1.6 3.2 0.00 0.00 0.00 86 1017.4
20260508034004 12 149 1.6 3.2 0.00 0.00 0.00 87 1017.1
20260508033504 12 135 0.0 3.2 0.00 0.00 0.00 87 1017.1
20260508033004 12 110 1.6 3.2 0.00 0.00 0.00 87 1017.1
20260508032504 12 86 1.6 3.2 0.00 0.00 0.00 86 1017.1
20260508032004 12 43 0.0 3.2 0.00 0.00 0.00 86 1017.0
20260508031504 12 270 1.6 6.4 0.00 0.00 0.00 86 1017.0
20260508031004 12 270 3.2 6.4 0.00 0.00 0.00 85 1017.0
20260508025504 13 45 0.0 1.6 0.00 0.00 0.00 83 1016.9
20260508024504 13 117 0.0 3.2 0.00 0.00 0.00 83 1016.9
20260508024004 13 59 3.2 6.4 0.00 0.00 0.00 85 1016.9
20260508023504 12 48 3.2 6.4 0.00 0.00 0.00 86 1016.9
20260508023004 12 63 1.6 3.2 0.00 0.00 0.00 85 1016.9
20260508022504 12 181 0.0 3.2 0.00 0.00 0.00 84 1017.1
20260508021504 13 122 3.2 3.2 0.00 0.00 0.00 84 1017.1
20260508020505 13 135 1.6 3.2 0.00 0.00 0.00 84 1017.3
20260508020004 13 151 0.0 1.6 0.00 0.00 0.00 85 1017.3
20260508015504 12 135 1.6 3.2 0.00 0.00 0.00 87 1017.4
20260508015004 12 97 1.6 3.2 0.00 0.00 0.00 87 1017.3
20260508014504 12 334 1.6 3.2 0.00 0.00 0.00 86 1017.3
20260508014004 12 331 1.6 3.2 0.00 0.00 0.00 84 1017.6
20260508013504 13 19 1.6 3.2 0.00 0.00 0.00 83 1017.6
20260508013005 13 86 1.6 3.2 0.00 0.00 0.00 83 1017.7
20260508012004 13 314 0.0 3.2 0.00 0.00 0.00 82 1017.7
20260508011504 13 314 1.6 3.2 0.00 0.00 0.00 83 1017.7
20260508011004 13 334 1.6 3.2 0.00 0.00 0.00 84 1017.7
20260508010504 13 353 1.6 3.2 0.00 0.00 0.00 83 1017.7
20260508010004 13 28 1.6 3.2 0.00 0.00 0.00 82 1017.7
20260508005504 13 27 3.2 3.2 0.00 0.00 0.00 82 1017.8
20260508005004 13 54 1.6 3.2 0.00 0.00 0.00 82 1017.9
20260508004004 13 61 3.2 4.8 0.00 0.00 0.00 83 1017.9
20260508003505 13 38 1.6 4.8 0.00 0.00 0.00 82 1017.9
20260508003005 13 0 0.0 0.0 0.00 0.00 0.00 82 1017.9
20260508002504 13 176 0.0 3.2 0.00 0.00 0.00 82 1017.9
20260508001504 13 117 3.2 3.2 0.00 0.00 0.00 81 1017.9
20260508001004 13 99 3.2 3.2 0.00 0.00 0.00 82 1017.8
20260508000504 13 96 1.6 3.2 0.00 0.00 0.00 81 1017.9
20260508000005 14 67 1.6 3.2 0.00 0.00 0.00 81 1018.3
20260507234504 13 10 1.6 3.2 0.00 0.00 0.00 82 1018.3
20260507234004 13 42 1.6 3.2 0.00 0.00 0.00 82 1018.5
20260507233504 13 48 3.2 6.4 0.00 0.00 0.00 82 1018.4
20260507233005 13 51 3.2 6.4 0.00 0.00 0.00 83 1018.4
20260507232505 13 46 1.6 3.2 0.00 0.00 0.00 83 1018.4
20260507232004 13 46 1.6 3.2 0.00 0.00 0.00 84 1018.7
20260507231504 13 80 1.6 3.2 0.00 0.00 0.00 84 1018.7
20260507231004 13 80 3.2 3.2 0.00 0.00 0.00 84 1018.6
20260507230005 13 230 1.6 3.2 0.00 0.00 0.00 82 1018.8
20260507225004 14 246 1.6 3.2 0.00 0.00 0.00 80 1018.9
20260507224005 14 43 3.2 4.8 0.00 0.00 0.00 82 1018.9
20260507223504 13 86 1.6 4.8 0.00 0.00 0.00 81 1018.9
20260507222504 14 123 4.8 4.8 0.00 0.00 0.00 80 1018.9
20260507222004 14 154 3.2 4.8 0.00 0.00 0.00 81 1018.8
20260507221504 14 144 3.2 4.8 0.00 0.00 0.00 81 1019.0
20260507221004 14 102 3.2 4.8 0.00 0.00 0.00 82 1019.0
20260507220505 14 78 3.2 3.2 0.00 0.00 0.00 83 1019.0
20260507220005 14 57 1.6 3.2 0.00 0.00 0.00 83 1019.1
20260507215505 14 55 1.6 3.2 0.00 0.00 0.00 83 1019.1
20260507215004 14 65 1.6 3.2 0.00 0.00 0.00 83 1019.2
20260507214504 14 129 1.6 3.2 0.00 0.00 0.00 83 1019.2
20260507214005 14 125 1.6 3.2 0.00 0.00 0.00 83 1019.3
20260507213505 14 97 1.6 3.2 0.00 0.00 0.00 83 1019.2
20260507213005 14 106 1.6 3.2 0.00 0.00 0.00 83 1019.3
20260507212004 15 89 1.6 3.2 0.00 0.00 0.00 81 1019.3
20260507211505 15 55 1.6 3.2 0.00 0.00 0.00 82 1019.3
20260507211005 14 50 1.6 3.2 0.00 0.00 0.00 83 1019.2
20260507210504 14 247 0.0 1.6 0.00 0.00 0.00 82 1019.5
20260507210008 15 355 0.0 3.2 0.00 0.00 0.00 82 1019.5
20260507205504 15 66 1.6 3.2 0.00 0.00 0.00 82 1019.6
20260507204505 15 58 1.6 3.2 0.00 0.00 0.00 81 1019.5
20260507204005 15 92 3.2 4.8 0.00 0.00 0.00 81 1019.5
20260507203005 15 67 0.0 3.2 0.00 0.00 0.00 80 1019.4
20260507202505 15 1 0.0 1.6 0.00 0.00 0.00 81 1019.6
20260507202005 15 96 1.6 3.2 0.00 0.00 0.00 82 1019.4
20260507201005 15 129 1.6 3.2 0.00 0.00 0.00 81 1019.5
20260507200504 15 131 0.0 3.2 0.00 0.00 0.00 82 1019.4
20260507200004 15 35 1.6 4.8 0.00 0.00 0.00 82 1019.4
20260507195504 15 42 3.2 4.8 0.00 0.00 0.00 81 1019.6
20260507194504 15 94 4.8 6.4 0.00 0.00 0.00 80 1019.4
20260507194004 15 112 4.8 6.4 0.00 0.00 0.00 81 1019.3
20260507193505 15 124 4.8 4.8 0.00 0.00 0.00 81 1019.2
20260507192505 15 114 1.6 3.2 0.00 0.00 0.00 83 1019.2
20260507192005 15 76 1.6 3.2 0.00 0.00 0.00 83 1019.1
20260507191005 15 98 0.0 3.2 0.00 0.00 0.00 82 1019.0
20260507190504 15 90 1.6 3.2 0.00 0.00 0.00 82 1018.9
20260507185504 15 111 3.2 3.2 0.00 0.00 0.00 81 1018.7
20260507185004 15 135 1.6 3.2 0.00 0.00 0.00 80 1018.7
20260507184505 16 135 1.6 3.2 0.00 0.00 0.00 80 1018.8
20260507184005 16 135 1.6 3.2 0.00 0.00 0.00 80 1018.8
20260507183505 16 135 0.0 1.6 0.00 0.00 0.00 81 1018.6
20260507183005 15 135 1.6 3.2 0.00 0.00 0.00 81 1018.4
20260507182504 16 119 1.6 3.2 0.00 0.00 0.00 80 1018.2
20260507182005 16 69 1.6 3.2 0.00 0.00 0.00 79 1018.4
20260507181505 16 54 1.6 3.2 0.00 0.00 0.00 78 1018.4
20260507181005 16 85 1.6 3.2 0.00 0.00 0.00 78 1018.4
20260507180505 16 89 1.6 3.2 0.00 0.00 0.00 77 1018.5
20260507175505 17 111 3.2 4.8 0.00 0.00 0.00 77 1018.3
20260507175005 17 90 1.6 3.2 0.00 0.00 0.00 75 1018.3
20260507174504 17 45 0.0 1.6 0.00 0.00 0.00 71 1018.5
20260507174005 17 45 0.0 1.6 0.00 0.00 0.00 71 1018.2
20260507173505 17 28 0.0 1.6 0.00 0.00 0.00 71 1018.2
20260507173006 18 314 0.0 1.6 0.00 0.00 0.00 70 1018.2
20260507172505 18 181 0.0 1.6 0.00 0.00 0.00 68 1018.4
20260507171505 19 339 1.6 3.2 0.00 0.00 0.00 66 1018.3
20260507171005 19 293 1.6 3.2 0.00 0.00 0.00 66 1018.4
20260507170505 19 277 1.6 3.2 0.00 0.00 0.00 64 1018.3
20260507170005 19 323 3.2 4.8 0.00 0.00 0.00 64 1018.3
20260507165505 20 327 3.2 4.8 0.00 0.00 0.00 63 1018.2
20260507165005 20 296 4.8 4.8 0.00 0.00 0.00 63 1018.1
20260507164505 20 306 4.8 6.4 0.00 0.00 0.00 62 1018.1
20260507163505 20 304 8.0 8.0 0.00 0.00 0.00 62 1018.3
20260507163005 20 309 6.4 8.0 0.00 0.00 0.00 60 1018.2
20260507162005 20 312 4.8 4.8 0.00 0.00 0.00 60 1018.0
20260507161505 20 311 3.2 4.8 0.00 0.00 0.00 60 1018.1
20260507161005 20 323 3.2 4.8 0.00 0.00 0.00 58 1018.2
20260507160505 21 310 4.8 6.4 0.00 0.00 0.00 57 1018.0
20260507160005 21 298 4.8 6.4 0.00 0.00 0.00 57 1018.1
20260507155005 22 228 4.8 8.0 0.00 0.00 0.00 55 1018.0
20260507154505 21 225 8.0 11.3 0.00 0.00 0.00 56 1017.9
20260507154005 21 231 9.7 14.5 0.00 0.00 0.00 57 1017.9
20260507153506 21 243 9.7 14.5 0.00 0.00 0.00 57 1018.3
20260507153005 21 248 6.4 9.7 0.00 0.00 0.00 57 1018.3
20260507151505 21 165 8.0 9.7 0.00 0.00 0.00 56 1018.1
20260507151005 21 142 9.7 12.9 0.00 0.00 0.00 56 1017.9
20260507150505 21 150 9.7 12.9 0.00 0.00 0.00 55 1018.0
20260507150006 21 153 9.7 12.9 0.00 0.00 0.00 54 1018.2
20260507145506 21 143 9.7 12.9 0.00 0.00 0.00 54 1018.1
20260507145005 21 143 9.7 11.3 0.00 0.00 0.00 53 1018.1
20260507144505 21 144 9.7 11.3 0.00 0.00 0.00 52 1018.0
20260507143503 22 171 6.4 11.3 0.00 0.00 0.00 51 1018.3
20260507143003 22 167 9.7 12.9 0.00 0.00 0.00 50 1018.2
20260507142503 22 178 9.7 12.9 0.00 0.00 0.00 50 1018.3
20260507142003 22 185 9.7 14.5 0.00 0.00 0.00 50 1018.2
20260507141502 22 184 9.7 14.5 0.00 0.00 0.00 50 1018.3
20260507140503 22 162 9.7 14.5 0.00 0.00 0.00 45 1018.2
20260507140003 22 144 14.5 17.7 0.00 0.00 0.00 48 1018.1
20260507135503 22 154 16.1 17.7 0.00 0.00 0.00 44 1018.0
20260507135003 22 169 16.1 17.7 0.00 0.00 0.00 43 1018.1
20260507134503 22 171 14.5 16.1 0.00 0.00 0.00 42 1018.1
20260507133503 22 156 17.7 19.3 0.00 0.00 0.00 41 1018.1
20260507133003 23 174 17.7 22.5 0.00 0.00 0.00 41 1018.2
20260507132503 22 162 19.3 22.5 0.00 0.00 0.00 42 1018.1
20260507131503 23 165 20.9 25.7 0.00 0.00 0.00 41 1017.9
20260507131003 23 150 20.9 25.7 0.00 0.00 0.00 40 1018.0
20260507130004 23 148 20.9 24.1 0.00 0.00 0.00 41 1018.1
20260507125503 23 162 19.3 25.7 0.00 0.00 0.00 42 1018.1
20260507125004 23 151 19.3 25.7 0.00 0.00 0.00 42 1018.3
20260507124503 23 143 19.3 24.1 0.00 0.00 0.00 46 1018.4
20260507124004 23 143 19.3 24.1 0.00 0.00 0.00 46 1018.4
20260507123503 23 121 19.3 24.1 0.00 0.00 0.00 49 1018.6
20260507123003 23 122 19.3 22.5 0.00 0.00 0.00 50 1018.6
20260507122503 23 152 17.7 20.9 0.00 0.00 0.00 51 1018.5
20260507122004 22 162 17.7 24.1 0.00 0.00 0.00 50 1018.3
20260507121503 22 165 17.7 24.1 0.00 0.00 0.00 48 1018.5
20260507121003 23 155 19.3 22.5 0.00 0.00 0.00 48 1018.6
20260507120004 23 177 22.5 27.4 0.00 0.00 0.00 48 1018.6
20260507115503 23 167 22.5 27.4 0.00 0.00 0.00 47 1018.6
20260507115003 22 154 22.5 27.4 0.00 0.00 0.00 50 1018.6
20260507114503 22 169 20.9 24.1 0.00 0.00 0.00 49 1018.5
20260507114004 22 188 19.3 22.5 0.00 0.00 0.00 48 1018.4
20260507113503 22 182 17.7 20.9 0.00 0.00 0.00 49 1018.5
20260507112503 22 150 17.7 24.1 0.00 0.00 0.00 48 1018.6
20260507112003 22 147 19.3 24.1 0.00 0.00 0.00 45 1018.6
20260507111003 23 144 19.3 24.1 0.00 0.00 0.00 43 1018.5
20260507110503 23 152 19.3 27.4 0.00 0.00 0.00 42 1018.5
20260507110003 23 147 20.9 27.4 0.00 0.00 0.00 40 1018.7
20260507105503 23 146 20.9 24.1 0.00 0.00 0.00 41 1018.8
20260507104503 23 152 19.3 24.1 0.00 0.00 0.00 40 1018.6
20260507103504 23 134 20.9 27.4 0.00 0.00 0.00 40 1018.7
20260507102504 23 148 19.3 24.1 0.00 0.00 0.00 42 1018.9
20260507102003 23 138 20.9 24.1 0.00 0.00 0.00 42 1018.8
20260507101503 23 139 20.9 24.1 0.00 0.00 0.00 40 1018.7
20260507101003 23 148 19.3 24.1 0.00 0.00 0.00 41 1018.8
20260507100503 23 152 19.3 24.1 0.00 0.00 0.00 40 1018.7
20260507100004 23 145 19.3 24.1 0.00 0.00 0.00 39 1018.8
20260507095003 23 137 19.3 24.1 0.00 0.00 0.00 40 1018.4
20260507094503 23 144 19.3 22.5 0.00 0.00 0.00 39 1018.5
20260507093503 23 168 16.1 19.3 0.00 0.00 0.00 40 1018.3
20260507092503 23 181 16.1 22.5 0.00 0.00 0.00 40 1018.4
20260507092004 23 162 17.7 19.3 0.00 0.00 0.00 40 1018.5
20260507091004 24 172 19.3 22.5 0.00 0.00 0.00 37 1018.4
20260507090504 25 167 19.3 22.5 0.00 0.00 0.00 35 1018.3
20260507090004 25 165 17.7 20.9 0.00 0.00 0.00 34 1018.3
20260507085503 25 151 19.3 24.1 0.00 0.00 0.00 36 1018.3
20260507085003 24 133 19.3 24.1 0.00 0.00 0.00 35 1018.4
20260507084503 25 148 17.7 20.9 0.00 0.00 0.00 35 1018.3
20260507083503 25 173 14.5 17.7 0.00 0.00 0.00 35 1018.3
20260507082503 24 156 14.5 17.7 0.00 0.00 0.00 36 1018.7
20260507081503 23 136 14.5 17.7 0.00 0.00 0.00 36 1018.4
20260507080504 23 150 11.3 12.9 0.00 0.00 0.00 37 1018.4
20260507080004 23 163 11.3 12.9 0.00 0.00 0.00 37 1018.5
20260507075503 23 148 11.3 14.5 0.00 0.00 0.00 40 1018.5
20260507075004 23 158 12.9 14.5 0.00 0.00 0.00 38 1018.5
20260507074004 23 169 11.3 12.9 0.00 0.00 0.00 37 1018.3
20260507073504 23 149 11.3 12.9 0.00 0.00 0.00 38 1018.2
20260507073004 23 170 12.9 16.1 0.00 0.00 0.00 39 1018.2
20260507072503 23 187 12.9 16.1 0.00 0.00 0.00 40 1018.4
20260507072003 22 177 12.9 16.1 0.00 0.00 0.00 41 1018.4
20260507071503 22 183 11.3 12.9 0.00 0.00 0.00 41 1018.4
20260507070008 22 200 6.4 8.0 0.00 0.00 0.00 42 1018.2
20260507065504 22 191 6.4 8.0 0.00 0.00 0.00 42 1018.2
20260507065004 22 178 4.8 6.4 0.00 0.00 0.00 46 1018.3
20260507064003 21 227 4.8 6.4 0.00 0.00 0.00 49 1018.4
20260507063503 21 225 4.8 6.4 0.00 0.00 0.00 50 1018.6
20260507063003 21 217 4.8 6.4 0.00 0.00 0.00 49 1018.5
20260507062004 20 163 4.8 4.8 0.00 0.00 0.00 52 1018.4
20260507061504 20 146 4.8 4.8 0.00 0.00 0.00 52 1018.3
20260507061004 19 149 4.8 4.8 0.00 0.00 0.00 57 1018.3
20260507060504 18 143 4.8 4.8 0.00 0.00 0.00 56 1018.4
20260507060003 18 131 3.2 4.8 0.00 0.00 0.00 56 1018.6
20260507055004 18 242 3.2 3.2 0.00 0.00 0.00 58 1018.4
20260507054504 17 257 3.2 3.2 0.00 0.00 0.00 61 1018.3
20260507054004 17 249 3.2 3.2 0.00 0.00 0.00 61 1018.2
20260507053503 17 231 3.2 4.8 0.00 0.00 0.00 64 1018.3
20260507052004 16 225 0.0 1.6 0.00 0.00 0.00 63 1018.4
20260507051504 16 225 0.0 1.6 0.00 0.00 0.00 70 1018.4
20260507051004 15 0 0.0 0.0 0.00 0.00 0.00 73 1018.3
20260507050504 15 225 0.0 3.2 0.00 0.00 0.00 75 1018.2
20260507050005 14 238 1.6 3.2 0.00 0.00 0.00 75 1018.1
20260507045004 13 270 1.6 3.2 0.00 0.00 0.00 77 1018.0
20260507044504 13 135 0.0 1.6 0.00 0.00 0.00 76 1017.8